Regional Weather Roundup
Issued by NWS

Home | Current Version | Previous Version | Graphics & Text | Print | Product List | Glossary On
Versions: 1 2 3 4 5 6 7 8 9 10 11 12 13 14 15 16 17 18 19 20 21 22 23 24 25 26 27 28 29 30 31 32 33 34 35 36 37 38 39 40 41 42 43 44 45 46 47 48 49 50
000
ASUS43 KBIS 311959
RWRND

NORTH DAKOTA REGIONAL WEATHER ROUNDUP
NATIONAL WEATHER SERVICE BISMARCK ND
300 PM CDT FRI OCT 31 2014

NOTE: "FAIR" INDICATES FEW OR NO CLOUDS BELOW 12,000 FEET WITH NO
SIGNIFICANT WEATHER AND/OR OBSTRUCTIONS TO VISIBILITY.


NDZ001>003-009>011-017-312100-
NORTHWEST NORTH DAKOTA

CITY           SKY/WX    TMP DP  RH WIND       PRES   REMARKS
WILLISTON      SUNNY     46  26  45 SE18G29   30.07F
MINOT          MOSUNNY   38  13  35 SE25G32   30.23F
$$

NDZ018>021-031>035-040>046-312100-
SOUTHWEST NORTH DAKOTA

CITY           SKY/WX    TMP DP  RH WIND       PRES   REMARKS
BISMARCK       SUNNY     39  15  37 S23G30    30.31F
DICKINSON      SUNNY     44  22  41 SE25G38   30.09F
GARRISON         N/A     39  21  48 S20G31    30.23F
HETTINGER ARPT SUNNY     43  18  36 SE26G41   30.14F
$$

NDZ004>008-012>016-024-026-027-054-312100-
NORTHEAST NORTH DAKOTA

CITY           SKY/WX    TMP DP  RH WIND       PRES   REMARKS
GRAND FORKS    MOSUNNY   38  20  48 S12G20    30.48F
DEVILS LAKE    SUNNY     37  16  41 S18       30.37F
$$

NDZ022-023-025-028>030-036>039-047>053-312100-
SOUTHEAST NORTH DAKOTA

CITY           SKY/WX    TMP DP  RH WIND       PRES   REMARKS
FARGO          SUNNY     39  20  46 S10       30.50F
$$




USA.gov is the U.S. government's official web portal to all federal, state and local government web resources and services.